Regional Weather Roundup
Issued by NWS

Home | Current Version | Previous Version | Graphics & Text | Print | Product List | Glossary On
Versions: 1 2 3 4 5 6 7 8 9 10 11 12 13 14 15 16 17 18 19 20 21 22 23 24 25 26 27 28 29 30 31 32 33 34 35 36 37 38 39 40 41 42 43 44 45 46 47 48 49 50
000
ASUS43 KMKX 010110
RWRWI

WISCONSIN REGIONAL WEATHER ROUNDUP
NATIONAL WEATHER SERVICE MILWAUKEE/SULLIVAN WI
700 PM CST SAT FEB 28 2015

NOTE: "FAIR" INDICATES FEW OR NO CLOUDS BELOW 12,000 FEET WITH NO
SIGNIFICANT WEATHER AND/OR OBSTRUCTIONS TO VISIBILITY.

WIZ001-002-006>008-014>016-023>028-010200-
NORTHWEST WISCONSIN

CITY           SKY/WX    TMP DP  RH WIND       PRES   REMARKS
SUPERIOR ARPT  CLOUDY    18   4  53 SW13G21   30.31R WCI   5
ASHLAND        PTCLDY    16  -3  43 S15       30.33S WCI   1
HAYWARD        MOCLDY    13  -1  54 S14       30.32S WCI  -2
SIREN          CLEAR     15   1  54 S12       30.33S WCI   1
CUMBERLAND     CLOUDY    12   0  57 S8        30.33F WCI   1
RICE LAKE      CLOUDY    13   0  55 S6        30.37S WCI   4
CHETEK         CLOUDY    14  -1  52 S7        30.37S WCI   3
LADYSMITH      CLOUDY    13  -1  54 S7        30.37F WCI   3
EAU CLAIRE     CLOUDY    15  -1  49 S12       30.39F WCI   2
MENOMONIE      CLOUDY    16   1  51 S9        30.39F WCI   4
NEW RICHMOND   MOCLDY    12   3  65 S9        30.36S WCI   0
OSCEOLA        MOCLDY    14   3  62 S7        30.39R WCI   4
$$

WIZ003>005-009-010-017-018-010200-
NORTH CENTRAL WISCONSIN

CITY           SKY/WX    TMP DP  RH WIND       PRES   REMARKS
MANITOWISH WTR PTCLDY    11  -5  49 S8        30.30S WCI  -1
ARBOR VITAE    PTCLDY    12  -5  46 S6        30.32S WCI   3
WOODRUFF       PTCLDY    12  -5  46 S6        30.32S WCI   3
RHINELANDER    CLEAR     11  -5  48 SW5       30.34S WCI   3
EAGLE RIVER    FAIR      12  -8  40 SW5       30.32S WCI   4
LAND O LAKES   CLEAR     13  -5  43 S7        30.31S WCI   3
PHILLIPS       PTCLDY    10  -4  51 S6        30.32F WCI   1
TOMAHAWK       CLEAR      9  -4  55 CALM      30.36S
MEDFORD        PTCLDY     9  -4  56 S6        30.35F WCI  -1
MERRILL        PTCLDY    13  -4  48 S3        30.37S
$$

WIZ029-030-035-036-043>047-010200-
CENTRAL WISCONSIN

CITY           SKY/WX    TMP DP  RH WIND       PRES   REMARKS
WAUSAU         CLEAR     14  -5  42 S8        30.38S WCI   3
MOSINEE        NOT AVBL
MARSHFIELD     CLOUDY    15  -2  46 S8        30.39F WCI   4
STEVENS POINT  PTCLDY    12  -4  49 S5        30.42F WCI   4
WAUPACA        FAIR      15   0  49 SE7       30.47R WCI   6
WAUTOMA        CLOUDY    14   0  54 S8        30.47F WCI   3
WISC RAPIDS    CLOUDY    14  -5  42 S5        30.44F WCI   6
CAMP DOUGLAS   CLOUDY    16  -2  46 S9        30.44S WCI   4
$$

WIZ011>013-019>022-031-037>040-048>050-010200-
NORTHEAST WISCONSIN

CITY           SKY/WX    TMP DP  RH WIND       PRES   REMARKS
ANTIGO         PTCLDY     8  -4  57 S9        30.37S WCI  -5
SHAWANO        CLEAR     17   0  47 S3        30.46S
OCONTO         CLEAR     14  -2  49 S5        30.48S WCI   7
STURGEON BAY   CLEAR     16   3  57 S7        30.50S WCI   6
GREEN BAY      CLEAR     15   0  51 S6        30.49S WCI   6
MANITOWOC      CLEAR     16   6  65 S10       30.51S WCI   4
APPLETON       PTCLDY    12   0  57 SW9       30.48S WCI   0
CLINTONVILLE   CLEAR     14   1  57 S7        30.46S WCI   4
OSHKOSH        PTCLDY    12   2  64 S8        30.48F WCI   0
$$

WIZ032>034-041-042-053>061-010200-
SOUTHWEST WISCONSIN

CITY           SKY/WX    TMP DP  RH WIND       PRES   REMARKS
LA CROSSE      CLOUDY    18   1  47 S10       30.45S WCI   6
SPARTA         CLOUDY    17  -3  42 S3        30.45F
VIROQUA        CLOUDY    14   1  56 S8        30.41S WCI   3
BOSCOBEL       MOCLDY    15   1  53 S3        30.49F
PRAIRIE DU CHI PTCLDY    15  -4  42 SE5       30.48S WCI   7
PLATTEVILLE    MOCLDY    13   4  67 E8        30.46S WCI   1
$$

WIZ056-057-062-063-064-067-068-010200-
SOUTH CENTRAL WISCONSIN

CITY           SKY/WX    TMP DP  RH WIND       PRES   REMARKS
REEDSBURG      CLOUDY    15   1  53 S8        30.46S WCI   4
BARABOO/DELLS  CLOUDY    15   2  57 S8        30.45S WCI   3
LONE ROCK      CLOUDY    14  -1  51 S7        30.50R WCI   4
MINERAL POINT  MOCLDY    14   1  57 SE6       30.45S WCI   5
MADISON        CLOUDY    15  -1  49 S12       30.48S WCI   2
MIDDLETON      CLOUDY    15   1  52 S7        30.48F WCI   6
WATERTOWN      CLOUDY    15   1  53 S3        30.49S
MONROE         CLOUDY    14   7  73 S7        30.47S WCI   4
JANESVILLE     CLOUDY    18   3  53 S6        30.50S WCI   9
$$

WIZ051-052-058>065-066-070>072-010200-
SOUTHEAST WISCONSIN

CITY           SKY/WX    TMP DP  RH WIND       PRES   REMARKS
MILWAUKEE      CLOUDY    18   6  59 S6        30.52F WCI  10
WAUKESHA       CLOUDY    16   0  48 CALM      30.50F
MILWAUKEE/TIMM CLOUDY    18   0  45 S6        30.52F WCI   9
RACINE         MOCLDY    19   7  59 S9        30.54S WCI   8
BURLINGTON     MOCLDY    15   2  58 S3        30.51S
KENOSHA        MOCLDY    19   8  62 SE8       30.52R WCI   9
FOND DU LAC    FAIR      14  -1  51 S6        30.48F WCI   5
SHEBOYGAN      FAIR      16   6  65 S7        30.50F WCI   6
WEST BEND      MOCLDY    16   0  48 CALM      30.48F
JUNEAU         CLOUDY    14   0  53 S9        30.49S WCI   2
$$

LSZ147-162-010200-
LAKE SUPERIOR

STATION/POSITION TIME  TEMP    WIND        PRES    WAVE
                       AIR SEA DIR/SP/G            HT/PER
                 (UTC) (F)     (DEG/KT/KT) (MB)    (FT/S)
DEVILS ISLAND    0000   20     180/  9/ 12 1027.6F
PORT WING        0000   19     190/ 11/ 18 1026.4F
SAXON HARBOR     0040   19     200/  5/  8 1027.1F
$$

LMZ867-665-643>646-010200-
LAKE MICHIGAN

STATION/POSITION TIME  TEMP    WIND        PRES    WAVE
                       AIR SEA DIR/SP/G            HT/PER
                 (UTC) (F)     (DEG/KT/KT) (MB)    (FT/S)
NORTHPORT PIER   0000   17      CALM  /  9 1032.2S
SISTER BAY       0013   14     210/  7/  8   N/A
KEWAUNEE LAKESHO 0000   18     210/ 11/ 14 1031.9F
SHEBOYGAN LAKESH 0100   19     190/ 15/ 16 1034.6F
PORT WASHINGTON  0040   18     210/  4/  7 1033.9F
MILWAUKEE LAKESH 0000   19     200/  5/  6   N/A
KENOSHA   LAKESH 0100   21     170/ 11/ 15 1033.5R
$$

TC  - TEMPERATURE IN CELSIUS
VSB - VISIBILITY IN STATUTE MILES
WCI - WIND CHILL INDEX
HX  - HEAT INDEX




USA.gov is the U.S. government's official web portal to all federal, state and local government web resources and services.